Time,TemperatureF,DewpointF,PressureIn,WindDirection,WindDirectionDegrees,WindSpeedMPH,WindSpeedGustMPH,Humidity,HourlyPrecipIn,Conditions,Clouds,dailyrainin,SoftwareType,DateUTC
2013-07-05 00:00:00,80.5,53.3,29.55,North,0,0.0,0.0,39,0.00,,,0.00,WUHU216HW,2013-07-05 07:00:00,
2013-07-05 00:05:00,80.3,53.8,29.55,North,0,0.0,0.0,40,0.00,,,0.00,WUHU216HW,2013-07-05 07:05:00,
2013-07-05 00:11:00,80.1,53.7,29.55,North,0,0.0,0.0,40,0.00,,,0.00,WUHU216HW,2013-07-05 07:11:00,
2013-07-05 00:16:00,79.7,54.0,29.55,North,0,0.0,0.0,41,0.00,,,0.00,WUHU216HW,2013-07-05 07:16:00,
2013-07-05 00:21:00,79.6,53.8,29.55,North,0,0.0,0.0,41,0.00,,,0.00,WUHU216HW,2013-07-05 07:21:00,
2013-07-05 00:26:00,79.2,53.5,29.55,North,0,0.0,0.0,41,0.00,,,0.00,WUHU216HW,2013-07-05 07:26:00,
2013-07-05 00:31:00,78.8,52.6,29.55,North,0,0.0,0.0,40,0.00,,,0.00,WUHU216HW,2013-07-05 07:31:00,
2013-07-05 00:36:00,78.8,52.6,29.56,North,0,0.0,0.0,40,0.00,,,0.00,WUHU216HW,2013-07-05 07:36:00,
2013-07-05 00:41:00,78.7,52.4,29.56,North,0,0.0,0.0,40,0.00,,,0.00,WUHU216HW,2013-07-05 07:41:00,
2013-07-05 00:46:00,78.5,52.2,29.55,North,0,0.0,0.0,40,0.00,,,0.00,WUHU216HW,2013-07-05 07:46:00,
2013-07-05 00:51:00,78.5,52.2,29.56,North,0,0.0,0.0,40,0.00,,,0.00,WUHU216HW,2013-07-05 07:51:00,
2013-07-05 00:56:00,78.1,51.1,29.56,North,0,0.0,0.0,39,0.00,,,0.00,WUHU216HW,2013-07-05 07:56:00,
2013-07-05 01:01:00,77.9,51.0,29.56,North,0,0.0,0.0,39,0.00,,,0.00,WUHU216HW,2013-07-05 08:01:00,
2013-07-05 01:06:00,77.8,50.9,29.56,North,0,0.0,0.0,39,0.00,,,0.00,WUHU216HW,2013-07-05 08:06:00,
2013-07-05 01:11:00,77.6,50.7,29.56,North,0,0.0,0.0,39,0.00,,,0.00,WUHU216HW,2013-07-05 08:11:00,
2013-07-05 01:17:00,77.2,50.3,29.56,North,0,0.0,0.0,39,0.00,,,0.00,WUHU216HW,2013-07-05 08:17:00,
2013-07-05 01:22:00,77.0,50.9,29.56,North,0,0.0,0.0,40,0.00,,,0.00,WUHU216HW,2013-07-05 08:22:00,
2013-07-05 01:27:00,76.9,50.8,29.56,North,0,0.0,0.0,40,0.00,,,0.00,WUHU216HW,2013-07-05 08:27:00,
2013-07-05 01:32:00,76.5,50.5,29.55,North,0,0.0,0.0,40,0.00,,,0.00,WUHU216HW,2013-07-05 08:32:00,
2013-07-05 01:37:00,76.3,50.3,29.56,North,0,0.0,0.0,40,0.00,,,0.00,WUHU216HW,2013-07-05 08:37:00,
2013-07-05 01:42:00,76.0,50.0,29.56,North,0,0.0,0.0,40,0.00,,,0.00,WUHU216HW,2013-07-05 08:42:00,
2013-07-05 01:47:00,75.8,49.8,29.56,North,0,0.0,0.0,40,0.00,,,0.00,WUHU216HW,2013-07-05 08:47:00,
2013-07-05 01:52:00,75.6,50.2,29.56,North,0,0.0,0.0,41,0.00,,,0.00,WUHU216HW,2013-07-05 08:52:00,
2013-07-05 01:58:00,75.2,50.0,29.56,North,0,0.0,0.0,41,0.00,,,0.00,WUHU216HW,2013-07-05 08:58:00,
2013-07-05 02:03:00,75.1,49.8,29.55,North,0,0.0,0.0,41,0.00,,,0.00,WUHU216HW,2013-07-05 09:03:00,
2013-07-05 02:08:00,74.7,49.4,29.56,North,0,0.0,0.0,41,0.00,,,0.00,WUHU216HW,2013-07-05 09:08:00,
2013-07-05 02:13:00,74.5,49.3,29.56,North,0,0.0,0.0,41,0.00,,,0.00,WUHU216HW,2013-07-05 09:13:00,
2013-07-05 02:18:00,74.3,49.7,29.56,North,0,0.0,0.0,42,0.00,,,0.00,WUHU216HW,2013-07-05 09:18:00,
2013-07-05 02:23:00,74.0,49.4,29.56,North,0,0.0,0.0,42,0.00,,,0.00,WUHU216HW,2013-07-05 09:23:00,
2013-07-05 02:28:00,73.8,49.2,29.56,North,0,0.0,0.0,42,0.00,,,0.00,WUHU216HW,2013-07-05 09:28:00,
2013-07-05 02:33:00,73.6,49.7,29.56,North,0,0.0,0.0,43,0.00,,,0.00,WUHU216HW,2013-07-05 09:33:00,
2013-07-05 02:38:00,73.4,49.5,29.56,North,0,0.0,0.0,43,0.00,,,0.00,WUHU216HW,2013-07-05 09:38:00,
2013-07-05 02:43:00,73.1,49.1,29.56,North,0,0.0,0.0,43,0.00,,,0.00,WUHU216HW,2013-07-05 09:43:00,
2013-07-05 02:48:00,72.9,49.6,29.56,North,0,0.0,0.0,44,0.00,,,0.00,WUHU216HW,2013-07-05 09:48:00,
2013-07-05 02:53:00,72.7,49.4,29.56,North,0,0.0,0.0,44,0.00,,,0.00,WUHU216HW,2013-07-05 09:53:00,
2013-07-05 02:59:00,72.4,49.2,29.56,North,0,0.0,0.0,44,0.00,,,0.00,WUHU216HW,2013-07-05 09:59:00,
2013-07-05 03:04:00,72.2,49.5,29.56,North,0,0.0,0.0,45,0.00,,,0.00,WUHU216HW,2013-07-05 10:04:00,
2013-07-05 03:09:00,72.0,49.4,29.56,North,0,0.0,0.0,45,0.00,,,0.00,WUHU216HW,2013-07-05 10:09:00,
2013-07-05 03:14:00,71.6,49.1,29.56,North,0,0.0,0.0,45,0.00,,,0.00,WUHU216HW,2013-07-05 10:14:00,
2013-07-05 03:19:00,71.5,48.9,29.56,North,0,0.0,0.0,45,0.00,,,0.00,WUHU216HW,2013-07-05 10:19:00,
2013-07-05 03:24:00,71.3,49.3,29.56,North,0,0.0,0.0,46,0.00,,,0.00,WUHU216HW,2013-07-05 10:24:00,
2013-07-05 03:29:00,71.1,48.6,29.56,North,0,0.0,0.0,45,0.00,,,0.00,WUHU216HW,2013-07-05 10:29:00,
2013-07-05 03:34:00,70.9,49.0,29.56,North,0,0.0,0.0,46,0.00,,,0.00,WUHU216HW,2013-07-05 10:34:00,
2013-07-05 03:40:00,70.9,49.0,29.56,North,0,0.0,0.0,46,0.00,,,0.00,WUHU216HW,2013-07-05 10:40:00,
2013-07-05 03:45:00,70.6,48.7,29.56,North,0,0.0,0.0,46,0.00,,,0.00,WUHU216HW,2013-07-05 10:45:00,
2013-07-05 03:50:00,70.4,49.2,29.56,North,0,0.0,0.0,47,0.00,,,0.00,WUHU216HW,2013-07-05 10:50:00,
2013-07-05 03:55:00,70.2,49.0,29.56,North,0,0.0,0.0,47,0.00,,,0.00,WUHU216HW,2013-07-05 10:55:00,
2013-07-05 04:00:00,70.0,48.8,29.56,North,0,0.0,0.0,47,0.00,,,0.00,WUHU216HW,2013-07-05 11:00:00,
2013-07-05 04:06:00,69.8,48.6,29.56,North,0,0.0,0.0,47,0.00,,,0.00,WUHU216HW,2013-07-05 11:06:00,
2013-07-05 04:11:00,69.7,48.4,29.56,North,0,0.0,0.0,47,0.00,,,0.00,WUHU216HW,2013-07-05 11:11:00,
2013-07-05 04:16:00,69.7,48.4,29.56,North,0,0.0,0.0,47,0.00,,,0.00,WUHU216HW,2013-07-05 11:16:00,
2013-07-05 04:21:00,69.5,48.3,29.56,North,0,0.0,0.0,47,0.00,,,0.00,WUHU216HW,2013-07-05 11:21:00,
2013-07-05 04:26:00,69.3,48.2,29.56,North,0,0.0,0.0,47,0.00,,,0.00,WUHU216HW,2013-07-05 11:26:00,
2013-07-05 04:31:00,69.1,48.6,29.56,North,0,0.0,0.0,48,0.00,,,0.00,WUHU216HW,2013-07-05 11:31:00,
2013-07-05 04:36:00,68.9,48.4,29.57,North,0,0.0,0.0,48,0.00,,,0.00,WUHU216HW,2013-07-05 11:36:00,
2013-07-05 04:41:00,68.8,48.2,29.57,North,0,0.0,0.0,48,0.00,,,0.00,WUHU216HW,2013-07-05 11:41:00,
2013-07-05 04:46:00,68.6,48.7,29.57,North,0,0.0,0.0,49,0.00,,,0.00,WUHU216HW,2013-07-05 11:46:00,
2013-07-05 04:52:00,68.4,48.5,29.57,North,0,0.0,0.0,49,0.00,,,0.00,WUHU216HW,2013-07-05 11:52:00,
2013-07-05 04:57:00,68.2,48.3,29.57,North,0,0.0,0.0,49,0.00,,,0.00,WUHU216HW,2013-07-05 11:57:00,
2013-07-05 05:02:00,68.2,48.3,29.58,North,0,0.0,0.0,49,0.00,,,0.00,WUHU216HW,2013-07-05 12:02:00,
2013-07-05 05:07:00,68.0,48.8,29.57,North,0,0.0,0.0,50,0.00,,,0.00,WUHU216HW,2013-07-05 12:07:00,
2013-07-05 05:12:00,68.0,48.8,29.58,North,0,0.0,0.0,50,0.00,,,0.00,WUHU216HW,2013-07-05 12:12:00,
2013-07-05 05:17:00,67.9,48.6,29.58,North,0,0.0,0.0,50,0.00,,,0.00,WUHU216HW,2013-07-05 12:17:00,
2013-07-05 05:22:00,67.9,48.6,29.58,North,0,0.0,0.0,50,0.00,,,0.00,WUHU216HW,2013-07-05 12:22:00,
2013-07-05 05:27:00,67.7,48.4,29.58,North,0,0.0,0.0,50,0.00,,,0.00,WUHU216HW,2013-07-05 12:27:00,
2013-07-05 05:32:00,67.5,48.3,29.58,North,0,0.0,0.0,50,0.00,,,0.00,WUHU216HW,2013-07-05 12:32:00,
2013-07-05 05:37:00,67.5,48.8,29.58,North,0,0.0,0.0,51,0.00,,,0.00,WUHU216HW,2013-07-05 12:37:00,
2013-07-05 05:43:00,67.3,48.6,29.58,North,0,0.0,0.0,51,0.00,,,0.00,WUHU216HW,2013-07-05 12:43:00,
2013-07-05 05:48:00,67.3,48.6,29.59,North,0,0.0,0.0,51,0.00,,,0.00,WUHU216HW,2013-07-05 12:48:00,
2013-07-05 05:53:00,67.1,49.0,29.59,North,0,0.0,0.0,52,0.00,,,0.00,WUHU216HW,2013-07-05 12:53:00,
2013-07-05 05:59:00,67.0,48.8,29.59,North,0,0.0,0.0,52,0.00,,,0.00,WUHU216HW,2013-07-05 12:59:00,
2013-07-05 06:04:00,67.0,48.8,29.59,North,0,0.0,0.0,52,0.00,,,0.00,WUHU216HW,2013-07-05 13:04:00,
2013-07-05 06:09:00,66.8,49.2,29.59,North,0,0.0,0.0,53,0.00,,,0.00,WUHU216HW,2013-07-05 13:09:00,
2013-07-05 06:14:00,66.6,49.0,29.59,North,0,0.0,0.0,53,0.00,,,0.00,WUHU216HW,2013-07-05 13:14:00,
2013-07-05 06:19:00,66.6,49.4,29.59,North,0,0.0,0.0,54,0.00,,,0.00,WUHU216HW,2013-07-05 13:19:00,
2013-07-05 06:24:00,66.6,49.4,29.60,North,0,0.0,0.0,54,0.00,,,0.00,WUHU216HW,2013-07-05 13:24:00,
2013-07-05 06:30:00,66.6,49.4,29.60,North,0,0.0,0.0,54,0.00,,,0.00,WUHU216HW,2013-07-05 13:30:00,
2013-07-05 06:35:00,66.6,49.4,29.60,North,0,0.0,0.0,54,0.00,,,0.00,WUHU216HW,2013-07-05 13:35:00,
2013-07-05 06:40:00,66.4,49.2,29.60,North,0,0.0,0.0,54,0.00,,,0.00,WUHU216HW,2013-07-05 13:40:00,
2013-07-05 06:45:00,66.4,49.8,29.60,North,0,0.0,0.0,55,0.00,,,0.00,WUHU216HW,2013-07-05 13:45:00,
2013-07-05 06:50:00,66.6,50.0,29.61,North,0,0.0,0.0,55,0.00,,,0.00,WUHU216HW,2013-07-05 13:50:00,
2013-07-05 06:55:00,66.6,50.4,29.61,North,0,0.0,0.0,56,0.00,,,0.00,WUHU216HW,2013-07-05 13:55:00,
2013-07-05 07:00:00,66.6,50.4,29.61,North,0,0.0,0.0,56,0.00,,,0.00,WUHU216HW,2013-07-05 14:00:00,
2013-07-05 07:06:00,66.8,50.6,29.61,North,0,0.0,0.0,56,0.00,,,0.00,WUHU216HW,2013-07-05 14:06:00,
2013-07-05 07:11:00,66.8,50.6,29.61,North,0,0.0,0.0,56,0.00,,,0.00,WUHU216HW,2013-07-05 14:11:00,
2013-07-05 07:16:00,67.0,50.8,29.61,North,0,0.0,0.0,56,0.00,,,0.00,WUHU216HW,2013-07-05 14:16:00,
2013-07-05 07:21:00,67.0,50.8,29.62,North,0,0.0,0.0,56,0.00,,,0.00,WUHU216HW,2013-07-05 14:21:00,
2013-07-05 07:26:00,67.0,51.2,29.62,North,0,0.0,0.0,57,0.00,,,0.00,WUHU216HW,2013-07-05 14:26:00,
2013-07-05 07:31:00,67.3,51.6,29.62,North,0,0.0,0.0,57,0.00,,,0.00,WUHU216HW,2013-07-05 14:31:00,
2013-07-05 07:36:00,67.3,52.0,29.63,North,0,0.0,0.0,58,0.00,,,0.00,WUHU216HW,2013-07-05 14:36:00,
2013-07-05 07:41:00,67.3,52.0,29.63,North,0,0.0,0.0,58,0.00,,,0.00,WUHU216HW,2013-07-05 14:41:00,
2013-07-05 07:46:00,67.5,51.7,29.63,North,0,0.0,0.0,57,0.00,,,0.00,WUHU216HW,2013-07-05 14:46:00,
2013-07-05 07:52:00,67.7,52.4,29.63,North,0,0.0,0.0,58,0.00,,,0.00,WUHU216HW,2013-07-05 14:52:00,
2013-07-05 07:57:00,67.9,52.5,29.63,North,0,0.0,0.0,58,0.00,,,0.00,WUHU216HW,2013-07-05 14:57:00,
2013-07-05 08:02:00,67.9,52.5,29.63,North,0,0.0,0.0,58,0.00,,,0.00,WUHU216HW,2013-07-05 15:02:00,
2013-07-05 08:07:00,68.0,52.7,29.64,North,0,0.0,0.0,58,0.00,,,0.00,WUHU216HW,2013-07-05 15:07:00,
2013-07-05 08:12:00,68.0,52.7,29.64,North,0,0.0,0.0,58,0.00,,,0.00,WUHU216HW,2013-07-05 15:12:00,
2013-07-05 08:17:00,68.4,53.0,29.64,North,0,0.0,0.0,58,0.00,,,0.00,WUHU216HW,2013-07-05 15:17:00,
2013-07-05 08:23:00,68.6,52.8,29.64,North,0,0.0,0.0,57,0.00,,,0.00,WUHU216HW,2013-07-05 15:23:00,
2013-07-05 08:28:00,68.8,52.9,29.64,North,0,0.0,0.0,57,0.00,,,0.00,WUHU216HW,2013-07-05 15:28:00,
2013-07-05 08:33:00,69.1,53.2,29.64,North,0,0.0,0.0,57,0.00,,,0.00,WUHU216HW,2013-07-05 15:33:00,
2013-07-05 08:38:00,69.3,53.4,29.64,North,0,0.0,0.0,57,0.00,,,0.00,WUHU216HW,2013-07-05 15:38:00,
2013-07-05 08:43:00,69.7,53.3,29.64,North,0,0.0,0.0,56,0.00,,,0.00,WUHU216HW,2013-07-05 15:43:00,
2013-07-05 08:48:00,70.0,53.6,29.65,North,0,0.0,0.0,56,0.00,,,0.00,WUHU216HW,2013-07-05 15:48:00,
2013-07-05 08:50:00,70.2,53.7,29.65,North,0,0.0,0.0,56,0.00,,,0.00,WUHU216HW,2013-07-05 15:50:00,
2013-07-05 08:55:00,70.4,53.4,29.65,North,0,0.0,0.0,55,0.00,,,0.00,WUHU216HW,2013-07-05 15:55:00,
2013-07-05 09:00:00,70.6,54.1,29.65,North,0,0.0,0.0,56,0.00,,,0.00,WUHU216HW,2013-07-05 16:00:00,
2013-07-05 09:05:00,70.7,54.3,29.65,North,0,0.0,0.0,56,0.00,,,0.00,WUHU216HW,2013-07-05 16:05:00,
2013-07-05 09:10:00,70.9,54.4,29.65,North,0,0.0,0.0,56,0.00,,,0.00,WUHU216HW,2013-07-05 16:10:00,
2013-07-05 09:15:00,71.3,54.2,29.65,North,0,0.0,0.0,55,0.00,,,0.00,WUHU216HW,2013-07-05 16:15:00,
2013-07-05 09:20:00,71.5,54.4,29.65,North,0,0.0,0.0,55,0.00,,,0.00,WUHU216HW,2013-07-05 16:20:00,
2013-07-05 09:25:00,71.6,54.5,29.65,North,0,0.0,0.0,55,0.00,,,0.00,WUHU216HW,2013-07-05 16:25:00,
2013-07-05 09:30:00,72.0,54.9,29.65,North,0,0.0,0.0,55,0.00,,,0.00,WUHU216HW,2013-07-05 16:30:00,
2013-07-05 09:35:00,72.2,54.6,29.65,North,0,0.0,0.0,54,0.00,,,0.00,WUHU216HW,2013-07-05 16:35:00,
2013-07-05 09:40:00,72.4,54.7,29.65,North,0,0.0,0.0,54,0.00,,,0.00,WUHU216HW,2013-07-05 16:40:00,
2013-07-05 09:45:00,72.5,54.8,29.65,North,0,0.0,0.0,54,0.00,,,0.00,WUHU216HW,2013-07-05 16:45:00,
2013-07-05 09:46:00,72.5,54.8,29.65,North,0,0.0,0.0,54,0.00,,,0.00,WUHU216HW,2013-07-05 16:46:00,
2013-07-05 09:51:00,72.7,55.0,29.65,North,0,0.0,0.0,54,0.00,,,0.00,WUHU216HW,2013-07-05 16:51:00,
2013-07-05 09:56:00,72.7,54.6,29.65,North,0,0.0,0.0,53,0.00,,,0.00,WUHU216HW,2013-07-05 16:56:00,
2013-07-05 10:01:00,72.9,55.2,29.65,North,0,0.0,0.0,54,0.00,,,0.00,WUHU216HW,2013-07-05 17:01:00,
2013-07-05 10:06:00,73.1,54.8,29.65,North,0,0.0,0.0,53,0.00,,,0.00,WUHU216HW,2013-07-05 17:06:00,
2013-07-05 10:11:00,73.3,54.5,29.65,North,0,0.0,0.0,52,0.00,,,0.00,WUHU216HW,2013-07-05 17:11:00,
2013-07-05 10:16:00,73.6,55.4,29.65,North,0,0.0,0.0,53,0.00,,,0.00,WUHU216HW,2013-07-05 17:16:00,
2013-07-05 10:21:00,74.2,55.9,29.65,North,0,0.0,0.0,53,0.00,,,0.00,WUHU216HW,2013-07-05 17:21:00,
2013-07-05 10:26:00,74.5,55.7,29.65,North,0,0.0,0.0,52,0.00,,,0.00,WUHU216HW,2013-07-05 17:26:00,
2013-07-05 10:31:00,74.5,55.3,29.65,North,0,0.0,0.0,51,0.00,,,0.00,WUHU216HW,2013-07-05 17:31:00,
2013-07-05 10:36:00,74.5,55.3,29.65,North,0,0.0,0.0,51,0.00,,,0.00,WUHU216HW,2013-07-05 17:36:00,
2013-07-05 10:41:00,74.7,55.5,29.65,North,0,0.0,0.0,51,0.00,,,0.00,WUHU216HW,2013-07-05 17:41:00,
2013-07-05 10:47:00,74.9,55.6,29.65,North,0,0.0,0.0,51,0.00,,,0.00,WUHU216HW,2013-07-05 17:47:00,
2013-07-05 10:52:00,75.2,56.0,29.65,North,0,0.0,0.0,51,0.00,,,0.00,WUHU216HW,2013-07-05 17:52:00,
2013-07-05 10:57:00,76.0,56.1,29.65,North,0,0.0,0.0,50,0.00,,,0.00,WUHU216HW,2013-07-05 17:57:00,
2013-07-05 11:02:00,76.0,56.1,29.65,North,0,0.0,0.0,50,0.00,,,0.00,WUHU216HW,2013-07-05 18:02:00,
2013-07-05 11:07:00,76.1,55.6,29.65,North,0,0.0,0.0,49,0.00,,,0.00,WUHU216HW,2013-07-05 18:07:00,
2013-07-05 11:12:00,76.1,55.6,29.65,North,0,0.0,0.0,49,0.00,,,0.00,WUHU216HW,2013-07-05 18:12:00,
2013-07-05 11:17:00,76.5,55.4,29.65,North,0,0.0,0.0,48,0.00,,,0.00,WUHU216HW,2013-07-05 18:17:00,
2013-07-05 11:22:00,76.9,56.3,29.65,North,0,0.0,0.0,49,0.00,,,0.00,WUHU216HW,2013-07-05 18:22:00,
2013-07-05 11:28:00,77.0,55.8,29.65,North,0,0.0,0.0,48,0.00,,,0.00,WUHU216HW,2013-07-05 18:28:00,
2013-07-05 11:33:00,77.0,55.8,29.65,North,0,0.0,0.0,48,0.00,,,0.00,WUHU216HW,2013-07-05 18:33:00,
2013-07-05 11:38:00,77.0,55.8,29.65,North,0,0.0,0.0,48,0.00,,,0.00,WUHU216HW,2013-07-05 18:38:00,
2013-07-05 11:40:00,77.2,56.0,29.65,North,0,0.0,0.0,48,0.00,,,0.00,WUHU216HW,2013-07-05 18:40:00,
2013-07-05 11:45:00,77.4,56.2,29.65,North,0,0.0,0.0,48,0.00,,,0.00,WUHU216HW,2013-07-05 18:45:00,
2013-07-05 11:50:00,77.8,56.5,29.65,North,0,0.0,0.0,48,0.00,,,0.00,WUHU216HW,2013-07-05 18:50:00,
2013-07-05 11:55:00,78.1,56.2,29.66,North,0,0.0,0.0,47,0.00,,,0.00,WUHU216HW,2013-07-05 18:55:00,
2013-07-05 12:00:00,78.8,56.9,29.65,North,0,0.0,0.0,47,0.00,,,0.00,WUHU216HW,2013-07-05 19:00:00,
2013-07-05 12:05:00,79.6,56.9,29.65,North,0,0.0,0.0,46,0.00,,,0.00,WUHU216HW,2013-07-05 19:05:00,
2013-07-05 12:11:00,79.6,56.9,29.65,North,0,0.0,0.0,46,0.00,,,0.00,WUHU216HW,2013-07-05 19:11:00,
2013-07-05 12:16:00,79.9,56.6,29.65,North,0,0.0,0.0,45,0.00,,,0.00,WUHU216HW,2013-07-05 19:16:00,
2013-07-05 12:21:00,79.9,56.6,29.65,North,0,0.0,0.0,45,0.00,,,0.00,WUHU216HW,2013-07-05 19:21:00,
2013-07-05 12:26:00,80.5,57.1,29.65,North,0,0.0,0.0,45,0.00,,,0.00,WUHU216HW,2013-07-05 19:26:00,
2013-07-05 12:31:00,80.8,57.4,29.65,North,0,0.0,0.0,45,0.00,,,0.00,WUHU216HW,2013-07-05 19:31:00,
2013-07-05 12:36:00,81.4,57.9,29.65,North,0,0.0,0.0,45,0.00,,,0.00,WUHU216HW,2013-07-05 19:36:00,
2013-07-05 12:41:00,81.7,57.6,29.64,North,0,0.0,0.0,44,0.00,,,0.00,WUHU216HW,2013-07-05 19:41:00,
2013-07-05 12:46:00,81.9,57.8,29.64,North,0,0.0,0.0,44,0.00,,,0.00,WUHU216HW,2013-07-05 19:46:00,
2013-07-05 12:51:00,82.3,58.1,29.64,North,0,0.0,0.0,44,0.00,,,0.00,WUHU216HW,2013-07-05 19:51:00,
2013-07-05 12:56:00,82.8,58.0,29.64,North,0,0.0,0.0,43,0.00,,,0.00,WUHU216HW,2013-07-05 19:56:00,
2013-07-05 13:02:00,83.2,57.7,29.64,North,0,0.0,0.0,42,0.00,,,0.00,WUHU216HW,2013-07-05 20:02:00,
2013-07-05 13:07:00,83.3,57.9,29.64,North,0,0.0,0.0,42,0.00,,,0.00,WUHU216HW,2013-07-05 20:07:00,
2013-07-05 13:08:00,83.5,58.7,29.64,North,0,0.0,0.0,43,0.00,,,0.00,WUHU216HW,2013-07-05 20:08:00,
2013-07-05 13:13:00,84.1,58.5,29.64,North,0,0.0,0.0,42,0.00,,,0.00,WUHU216HW,2013-07-05 20:13:00,
2013-07-05 13:18:00,84.4,58.2,29.64,North,0,0.0,0.0,41,0.00,,,0.00,WUHU216HW,2013-07-05 20:18:00,
2013-07-05 13:23:00,84.8,58.5,29.64,North,0,0.0,0.0,41,0.00,,,0.00,WUHU216HW,2013-07-05 20:23:00,
2013-07-05 13:28:00,85.1,58.9,29.64,North,0,0.0,0.0,41,0.00,,,0.00,WUHU216HW,2013-07-05 20:28:00,
2013-07-05 13:33:00,85.9,58.1,29.63,North,0,0.0,0.0,39,0.00,,,0.00,WUHU216HW,2013-07-05 20:33:00,
2013-07-05 13:38:00,86.2,58.4,29.63,North,0,0.0,0.0,39,0.00,,,0.00,WUHU216HW,2013-07-05 20:38:00,
2013-07-05 13:43:00,86.8,58.1,29.63,North,0,0.0,0.0,38,0.00,,,0.00,WUHU216HW,2013-07-05 20:43:00,
2013-07-05 13:48:00,86.8,58.1,29.63,North,0,0.0,0.0,38,0.00,,,0.00,WUHU216HW,2013-07-05 20:48:00,
2013-07-05 13:53:00,87.1,58.4,29.63,North,0,0.0,0.0,38,0.00,,,0.00,WUHU216HW,2013-07-05 20:53:00,
2013-07-05 13:59:00,87.5,59.5,29.63,North,0,0.0,0.0,39,0.00,,,0.00,WUHU216HW,2013-07-05 20:59:00,
2013-07-05 14:04:00,87.8,59.0,29.63,North,0,0.0,0.0,38,0.00,,,0.00,WUHU216HW,2013-07-05 21:04:00,
2013-07-05 14:09:00,88.4,58.7,29.63,North,0,0.0,0.0,37,0.00,,,0.00,WUHU216HW,2013-07-05 21:09:00,
2013-07-05 14:14:00,88.7,58.1,29.62,North,0,0.0,0.0,36,0.00,,,0.00,WUHU216HW,2013-07-05 21:14:00,
2013-07-05 14:19:00,89.3,58.6,29.62,North,0,0.0,0.0,36,0.00,,,0.00,WUHU216HW,2013-07-05 21:19:00,
2013-07-05 14:24:00,89.8,58.3,29.62,North,0,0.0,0.0,35,0.00,,,0.00,WUHU216HW,2013-07-05 21:24:00,
2013-07-05 14:29:00,89.5,58.0,29.62,North,0,0.0,0.0,35,0.00,,,0.00,WUHU216HW,2013-07-05 21:29:00,
2013-07-05 14:34:00,89.5,58.0,29.61,North,0,0.0,0.0,35,0.00,,,0.00,WUHU216HW,2013-07-05 21:34:00,
2013-07-05 14:39:00,89.5,58.0,29.61,North,0,0.0,0.0,35,0.00,,,0.00,WUHU216HW,2013-07-05 21:39:00,
2013-07-05 14:44:00,89.8,58.3,29.61,North,0,0.0,0.0,35,0.00,,,0.00,WUHU216HW,2013-07-05 21:44:00,
2013-07-05 14:50:00,89.6,58.1,29.61,North,0,0.0,0.0,35,0.00,,,0.00,WUHU216HW,2013-07-05 21:50:00,
2013-07-05 14:55:00,89.6,58.1,29.61,North,0,0.0,0.0,35,0.00,,,0.00,WUHU216HW,2013-07-05 21:55:00,
2013-07-05 15:00:00,89.8,58.3,29.61,North,0,0.0,0.0,35,0.00,,,0.00,WUHU216HW,2013-07-05 22:00:00,
2013-07-05 15:05:00,89.8,57.5,29.61,North,0,0.0,0.0,34,0.00,,,0.00,WUHU216HW,2013-07-05 22:05:00,
2013-07-05 15:10:00,90.2,57.9,29.61,North,0,0.0,0.0,34,0.00,,,0.00,WUHU216HW,2013-07-05 22:10:00,
2013-07-05 15:15:00,90.4,58.0,29.61,North,0,0.0,0.0,34,0.00,,,0.00,WUHU216HW,2013-07-05 22:15:00,
2013-07-05 15:20:00,90.7,58.3,29.61,North,0,0.0,0.0,34,0.00,,,0.00,WUHU216HW,2013-07-05 22:20:00,
2013-07-05 15:25:00,91.3,58.8,29.61,North,0,0.0,0.0,34,0.00,,,0.00,WUHU216HW,2013-07-05 22:25:00,
2013-07-05 15:30:00,91.8,59.3,29.61,North,0,0.0,0.0,34,0.00,,,0.00,WUHU216HW,2013-07-05 22:30:00,
2013-07-05 15:35:00,91.8,59.3,29.60,North,0,0.0,0.0,34,0.00,,,0.00,WUHU216HW,2013-07-05 22:35:00,
2013-07-05 15:40:00,91.8,59.3,29.60,North,0,0.0,0.0,34,0.00,,,0.00,WUHU216HW,2013-07-05 22:40:00,
2013-07-05 15:45:00,91.6,58.3,29.60,North,0,0.0,0.0,33,0.00,,,0.00,WUHU216HW,2013-07-05 22:45:00,
2013-07-05 15:46:00,91.6,58.3,29.60,North,0,0.0,0.0,33,0.00,,,0.00,WUHU216HW,2013-07-05 22:46:00,
2013-07-05 15:51:00,91.6,59.1,29.60,North,0,0.0,0.0,34,0.00,,,0.00,WUHU216HW,2013-07-05 22:51:00,
2013-07-05 15:56:00,91.4,58.1,29.60,North,0,0.0,0.0,33,0.00,,,0.00,WUHU216HW,2013-07-05 22:56:00,
2013-07-05 16:01:00,91.3,58.8,29.59,North,0,0.0,0.0,34,0.00,,,0.00,WUHU216HW,2013-07-05 23:01:00,
2013-07-05 16:06:00,91.3,58.8,29.59,North,0,0.0,0.0,34,0.00,,,0.00,WUHU216HW,2013-07-05 23:06:00,
2013-07-05 16:11:00,91.6,58.3,29.59,North,0,0.0,0.0,33,0.00,,,0.00,WUHU216HW,2013-07-05 23:11:00,
2013-07-05 16:16:00,91.4,58.1,29.59,North,0,0.0,0.0,33,0.00,,,0.00,WUHU216HW,2013-07-05 23:16:00,
2013-07-05 16:21:00,91.4,58.1,29.59,North,0,0.0,0.0,33,0.00,,,0.00,WUHU216HW,2013-07-05 23:21:00,
2013-07-05 16:26:00,91.4,58.1,29.59,North,0,0.0,0.0,33,0.00,,,0.00,WUHU216HW,2013-07-05 23:26:00,
2013-07-05 16:31:00,91.3,58.1,29.59,North,0,0.0,0.0,33,0.00,,,0.00,WUHU216HW,2013-07-05 23:31:00,
2013-07-05 16:36:00,91.4,58.1,29.59,North,0,0.0,0.0,33,0.00,,,0.00,WUHU216HW,2013-07-05 23:36:00,
2013-07-05 16:41:00,91.4,58.1,29.59,North,0,0.0,0.0,33,0.00,,,0.00,WUHU216HW,2013-07-05 23:41:00,
2013-07-05 16:47:00,91.6,58.3,29.59,North,0,0.0,0.0,33,0.00,,,0.00,WUHU216HW,2013-07-05 23:47:00,
2013-07-05 16:52:00,91.1,57.9,29.58,North,0,0.0,0.0,33,0.00,,,0.00,WUHU216HW,2013-07-05 23:52:00,
2013-07-05 16:57:00,91.1,57.9,29.59,North,0,0.0,0.0,33,0.00,,,0.00,WUHU216HW,2013-07-05 23:57:00,
2013-07-05 17:02:00,91.1,57.9,29.58,North,0,0.0,0.0,33,0.00,,,0.00,WUHU216HW,2013-07-06 00:02:00,
2013-07-05 17:07:00,90.7,57.5,29.58,North,0,0.0,0.0,33,0.00,,,0.00,WUHU216HW,2013-07-06 00:07:00,
2013-07-05 17:12:00,90.2,57.9,29.58,North,0,0.0,0.0,34,0.00,,,0.00,WUHU216HW,2013-07-06 00:12:00,
2013-07-05 17:17:00,90.0,57.7,29.58,North,0,0.0,0.0,34,0.00,,,0.00,WUHU216HW,2013-07-06 00:17:00,
2013-07-05 17:22:00,89.8,57.5,29.58,North,0,0.0,0.0,34,0.00,,,0.00,WUHU216HW,2013-07-06 00:22:00,
2013-07-05 17:23:00,89.8,57.5,29.58,North,0,0.0,0.0,34,0.00,,,0.00,WUHU216HW,2013-07-06 00:23:00,
2013-07-05 17:28:00,89.5,57.2,29.58,North,0,0.0,0.0,34,0.00,,,0.00,WUHU216HW,2013-07-06 00:28:00,
2013-07-05 17:33:00,89.3,57.1,29.58,North,0,0.0,0.0,34,0.00,,,0.00,WUHU216HW,2013-07-06 00:33:00,
2013-07-05 17:38:00,89.1,57.7,29.57,North,0,0.0,0.0,35,0.00,,,0.00,WUHU216HW,2013-07-06 00:38:00,
2013-07-05 17:43:00,88.9,57.5,29.57,North,0,0.0,0.0,35,0.00,,,0.00,WUHU216HW,2013-07-06 00:43:00,
2013-07-05 17:48:00,88.7,57.3,29.57,North,0,0.0,0.0,35,0.00,,,0.00,WUHU216HW,2013-07-06 00:48:00,
2013-07-05 17:53:00,88.4,57.9,29.57,North,0,0.0,0.0,36,0.00,,,0.00,WUHU216HW,2013-07-06 00:53:00,
2013-07-05 17:58:00,88.0,56.8,29.57,North,0,0.0,0.0,35,0.00,,,0.00,WUHU216HW,2013-07-06 00:58:00,
2013-07-05 18:03:00,87.8,57.4,29.57,North,0,0.0,0.0,36,0.00,,,0.00,WUHU216HW,2013-07-06 01:03:00,
2013-07-05 18:09:00,87.8,57.4,29.57,North,0,0.0,0.0,36,0.00,,,0.00,WUHU216HW,2013-07-06 01:09:00,
2013-07-05 18:14:00,87.5,57.2,29.57,North,0,0.0,0.0,36,0.00,,,0.00,WUHU216HW,2013-07-06 01:14:00,
2013-07-05 18:19:00,86.9,58.2,29.57,North,0,0.0,0.0,38,0.00,,,0.00,WUHU216HW,2013-07-06 01:19:00,
2013-07-05 18:24:00,86.8,57.3,29.58,North,0,0.0,0.0,37,0.00,,,0.00,WUHU216HW,2013-07-06 01:24:00,
2013-07-05 18:29:00,86.6,57.2,29.57,North,0,0.0,0.0,37,0.00,,,0.00,WUHU216HW,2013-07-06 01:29:00,
2013-07-05 18:34:00,85.9,57.3,29.57,North,0,0.0,0.0,38,0.00,,,0.00,WUHU216HW,2013-07-06 01:34:00,
2013-07-05 18:39:00,85.7,57.2,29.57,North,0,0.0,0.0,38,0.00,,,0.00,WUHU216HW,2013-07-06 01:39:00,
2013-07-05 18:44:00,85.3,56.8,29.58,North,0,0.0,0.0,38,0.00,,,0.00,WUHU216HW,2013-07-06 01:44:00,
2013-07-05 18:49:00,85.1,57.4,29.58,North,0,0.0,0.0,39,0.00,,,0.00,WUHU216HW,2013-07-06 01:49:00,
2013-07-05 18:54:00,85.0,57.2,29.58,North,0,0.0,0.0,39,0.00,,,0.00,WUHU216HW,2013-07-06 01:54:00,
2013-07-05 19:00:00,84.8,57.2,29.58,North,0,0.0,0.0,39,0.00,,,0.00,WUHU216HW,2013-07-06 02:00:00,
2013-07-05 19:05:00,84.8,57.2,29.58,North,0,0.0,0.0,39,0.00,,,0.00,WUHU216HW,2013-07-06 02:05:00,
2013-07-05 19:10:00,84.6,57.0,29.58,North,0,0.0,0.0,39,0.00,,,0.00,WUHU216HW,2013-07-06 02:10:00,
2013-07-05 19:15:00,84.4,56.8,29.58,North,0,0.0,0.0,39,0.00,,,0.00,WUHU216HW,2013-07-06 02:15:00,
2013-07-05 19:20:00,84.1,57.2,29.58,North,0,0.0,0.0,40,0.00,,,0.00,WUHU216HW,2013-07-06 02:20:00,
2013-07-05 19:25:00,83.7,57.0,29.58,North,0,0.0,0.0,40,0.00,,,0.00,WUHU216HW,2013-07-06 02:25:00,
2013-07-05 19:30:00,83.3,56.6,29.58,North,0,0.0,0.0,40,0.00,,,0.00,WUHU216HW,2013-07-06 02:30:00,
2013-07-05 19:35:00,83.0,56.9,29.58,North,0,0.0,0.0,41,0.00,,,0.00,WUHU216HW,2013-07-06 02:35:00,
2013-07-05 19:40:00,82.4,56.4,29.58,North,0,0.0,0.0,41,0.00,,,0.00,WUHU216HW,2013-07-06 02:40:00,
2013-07-05 19:45:00,81.9,55.9,29.58,North,0,0.0,0.0,41,0.00,,,0.00,WUHU216HW,2013-07-06 02:45:00,
2013-07-05 19:50:00,81.2,55.9,29.58,North,0,0.0,0.0,42,0.00,,,0.00,WUHU216HW,2013-07-06 02:50:00,
2013-07-05 19:55:00,80.6,56.0,29.58,North,0,0.0,0.0,43,0.00,,,0.00,WUHU216HW,2013-07-06 02:55:00,
2013-07-05 20:01:00,80.3,56.4,29.58,North,0,0.0,0.0,44,0.00,,,0.00,WUHU216HW,2013-07-06 03:01:00,
2013-07-05 20:06:00,79.6,55.6,29.58,North,0,0.0,0.0,44,0.00,,,0.00,WUHU216HW,2013-07-06 03:06:00,
2013-07-05 20:11:00,79.2,56.0,29.58,North,0,0.0,0.0,45,0.00,,,0.00,WUHU216HW,2013-07-06 03:11:00,
2013-07-05 20:16:00,78.8,55.6,29.59,North,0,0.0,0.0,45,0.00,,,0.00,WUHU216HW,2013-07-06 03:16:00,
2013-07-05 20:21:00,78.5,55.3,29.59,North,0,0.0,0.0,45,0.00,,,0.00,WUHU216HW,2013-07-06 03:21:00,
2013-07-05 20:26:00,78.1,55.6,29.59,North,0,0.0,0.0,46,0.00,,,0.00,WUHU216HW,2013-07-06 03:26:00,
2013-07-05 20:31:00,77.8,55.3,29.59,North,0,0.0,0.0,46,0.00,,,0.00,WUHU216HW,2013-07-06 03:31:00,
2013-07-05 20:36:00,77.4,54.9,29.59,North,0,0.0,0.0,46,0.00,,,0.00,WUHU216HW,2013-07-06 03:36:00,
2013-07-05 20:41:00,77.0,55.3,29.59,North,0,0.0,0.0,47,0.00,,,0.00,WUHU216HW,2013-07-06 03:41:00,
2013-07-05 20:46:00,76.7,54.9,29.59,North,0,0.0,0.0,47,0.00,,,0.00,WUHU216HW,2013-07-06 03:46:00,
2013-07-05 20:51:00,76.1,54.5,29.60,North,0,0.0,0.0,47,0.00,,,0.00,WUHU216HW,2013-07-06 03:51:00,
2013-07-05 20:56:00,75.6,54.5,29.60,North,0,0.0,0.0,48,0.00,,,0.00,WUHU216HW,2013-07-06 03:56:00,
2013-07-05 21:00:00,75.4,54.4,29.60,North,0,0.0,0.0,48,0.00,,,0.00,WUHU216HW,2013-07-06 04:00:00,
2013-07-05 21:01:00,75.2,54.2,29.60,North,0,0.0,0.0,48,0.00,,,0.00,WUHU216HW,2013-07-06 04:01:00,
2013-07-05 21:03:00,75.2,54.2,29.60,North,0,0.0,0.0,48,0.00,,,0.00,WUHU216HW,2013-07-06 04:03:00,
2013-07-05 21:09:00,75.1,54.6,29.60,North,0,0.0,0.0,49,0.00,,,0.00,WUHU216HW,2013-07-06 04:09:00,
2013-07-05 21:14:00,74.9,54.5,29.60,North,0,0.0,0.0,49,0.00,,,0.00,WUHU216HW,2013-07-06 04:14:00,
2013-07-05 21:19:00,74.3,54.5,29.60,North,0,0.0,0.0,50,0.00,,,0.00,WUHU216HW,2013-07-06 04:19:00,
2013-07-05 21:24:00,74.2,54.4,29.61,North,0,0.0,0.0,50,0.00,,,0.00,WUHU216HW,2013-07-06 04:24:00,
2013-07-05 21:29:00,73.8,54.0,29.61,North,0,0.0,0.0,50,0.00,,,0.00,WUHU216HW,2013-07-06 04:29:00,
2013-07-05 21:34:00,73.4,54.2,29.61,North,0,0.0,0.0,51,0.00,,,0.00,WUHU216HW,2013-07-06 04:34:00,
2013-07-05 21:40:00,73.3,54.0,29.61,North,0,0.0,0.0,51,0.00,,,0.00,WUHU216HW,2013-07-06 04:40:00,
2013-07-05 21:45:00,72.7,53.5,29.61,North,0,0.0,0.0,51,0.00,,,0.00,WUHU216HW,2013-07-06 04:45:00,
2013-07-05 21:50:00,72.4,53.6,29.62,North,0,0.0,0.0,52,0.00,,,0.00,WUHU216HW,2013-07-06 04:50:00,
2013-07-05 21:55:00,72.0,53.4,29.62,North,0,0.0,0.0,52,0.00,,,0.00,WUHU216HW,2013-07-06 04:55:00,
2013-07-05 22:00:00,71.6,53.6,29.63,North,0,0.0,0.0,53,0.00,,,0.00,WUHU216HW,2013-07-06 05:00:00,
2013-07-05 22:05:00,71.3,53.2,29.63,North,0,0.0,0.0,53,0.00,,,0.00,WUHU216HW,2013-07-06 05:05:00,
2013-07-05 22:10:00,71.1,53.0,29.63,North,0,0.0,0.0,53,0.00,,,0.00,WUHU216HW,2013-07-06 05:10:00,
2013-07-05 22:15:00,70.9,53.4,29.63,North,0,0.0,0.0,54,0.00,,,0.00,WUHU216HW,2013-07-06 05:15:00,
2013-07-05 22:20:00,70.4,53.4,29.63,North,0,0.0,0.0,55,0.00,,,0.00,WUHU216HW,2013-07-06 05:20:00,
2013-07-05 22:25:00,70.0,53.1,29.63,North,0,0.0,0.0,55,0.00,,,0.00,WUHU216HW,2013-07-06 05:25:00,
2013-07-05 22:30:00,69.8,52.4,29.63,North,0,0.0,0.0,54,0.00,,,0.00,WUHU216HW,2013-07-06 05:30:00,
2013-07-05 22:35:00,69.5,52.6,29.63,North,0,0.0,0.0,55,0.00,,,0.00,WUHU216HW,2013-07-06 05:35:00,
2013-07-05 22:41:00,69.3,51.9,29.63,North,0,0.0,0.0,54,0.00,,,0.00,WUHU216HW,2013-07-06 05:41:00,
2013-07-05 22:46:00,69.1,52.2,29.63,North,0,0.0,0.0,55,0.00,,,0.00,WUHU216HW,2013-07-06 05:46:00,
2013-07-05 22:51:00,68.9,52.0,29.63,North,0,0.0,0.0,55,0.00,,,0.00,WUHU216HW,2013-07-06 05:51:00,
2013-07-05 22:56:00,68.8,51.9,29.63,North,0,0.0,0.0,55,0.00,,,0.00,WUHU216HW,2013-07-06 05:56:00,
2013-07-05 23:01:00,68.6,51.8,29.63,North,0,0.0,0.0,55,0.00,,,0.00,WUHU216HW,2013-07-06 06:01:00,
2013-07-05 23:06:00,68.4,52.0,29.63,North,0,0.0,0.0,56,0.00,,,0.00,WUHU216HW,2013-07-06 06:06:00,
2013-07-05 23:11:00,68.2,51.8,29.63,North,0,0.0,0.0,56,0.00,,,0.00,WUHU216HW,2013-07-06 06:11:00,
2013-07-05 23:16:00,68.0,51.7,29.63,North,0,0.0,0.0,56,0.00,,,0.00,WUHU216HW,2013-07-06 06:16:00,
2013-07-05 23:21:00,67.9,52.0,29.63,North,0,0.0,0.0,57,0.00,,,0.00,WUHU216HW,2013-07-06 06:21:00,
2013-07-05 23:26:00,67.7,51.8,29.63,North,0,0.0,0.0,57,0.00,,,0.00,WUHU216HW,2013-07-06 06:26:00,
2013-07-05 23:31:00,67.3,52.0,29.63,North,0,0.0,0.0,58,0.00,,,0.00,WUHU216HW,2013-07-06 06:31:00,
2013-07-05 23:36:00,67.1,51.8,29.63,North,0,0.0,0.0,58,0.00,,,0.00,WUHU216HW,2013-07-06 06:36:00,
2013-07-05 23:42:00,67.0,51.7,29.63,North,0,0.0,0.0,58,0.00,,,0.00,WUHU216HW,2013-07-06 06:42:00,
2013-07-05 23:47:00,66.8,52.0,29.63,North,0,0.0,0.0,59,0.00,,,0.00,WUHU216HW,2013-07-06 06:47:00,
2013-07-05 23:52:00,66.6,51.8,29.63,North,0,0.0,0.0,59,0.00,,,0.00,WUHU216HW,2013-07-06 06:52:00,
2013-07-05 23:57:00,66.4,51.7,29.63,North,0,0.0,0.0,59,0.00,,,0.00,WUHU216HW,2013-07-06 06:57:00,